Погода в Хуторе-Боре

Россия / Брянская область     53°06′39″N   34°14′09″E
темп.,
°C
ветер,
м/с
пор.,
м/с
влажн.,
%
обл.,
%
осадки,
мм/ч
давл.,
гПа
погр.,
м
21 апреля, ср
ср2100:00+3св3697100 0.0 1009458
03:00+3с3597100 0.0 1008439
06:00+2сз2594100 0.0 1007473
09:00+4зсз2483100 0.1 1008615
12:00+5з3475100 0.1 1009905
15:00+7зюз3468100 0.1 10101108
18:00+6ююз3679100 0.0 1011481
21:00+5ююз399391 0.0 1013340
22 апреля, чт
чт2200:00+3ю3109450 0.1 1013298
03:00+5ю41190100 0.1 1014417
06:00+4ю3109452 0.5 1014292
09:00+9ююз487728 0.6 1015542
12:00+14ююз585846 0.0 10151218
15:00+15ююз695513 1.0 10141731
18:00+13юз510699 1.4 10141165
21:00+10ю4138195 2.1 1015493
23 апреля, пт
пт2300:00+9ю4138542 0.1 1014413
03:00+9ю4138539 0.4 1014533
06:00+8ю4148998 0.4 1013577
09:00+10ююз51187100 1.5 1013944
12:00+5сз3694100 4.4 1015305
15:00+6з1388100 8.1 1015446
18:00+6ююз2488100 0.5 1014245
21:00+5ю2588100 0.7 1014130
24 апреля, сб
сб2400:00+4зюз2690100 0.3 1013201
03:00+2з27925 0.3 1013171
06:000з25925 0.0 1013109
09:00+5з356924 0.0 1013645
12:00+8з464869 0.2 10122032
15:00+9з5749100 0.6 10121810
18:00+7з486231 1.1 10121558
21:00+2з28806 1.2 1014197
25 апреля, вс
вс2500:00+1зюз310845 0.0 1014288
03:00+1юз31087100 0.0 1014350
06:000зюз310895 0.0 1014394
09:00+3зюз6105916 0.1 10141558
12:00+6зюз6843100 0.2 10142387
15:00+6з695759 0.6 10141688
18:00+6з585974 0.1 10141526
21:00+2юз39775 0.2 1015316